Back to catalog

STARLINK-33748

AliveCommunicationsVLEO
NORAD 63383·PAYLOAD·🇺🇸 United States

Launched Mar 26, 2025 from Vandenberg Space Force Base

Loading…

Next Passes (next 24 hours)

TLE

FreshSource: CelesTrak SupGP

Epoch: Sep 14, 2026, 21:02 UTC

1 63383C 25063W   26257.87687500  .00049975  00000+0  14767-2 0  2579
2 63383  53.1572 261.8776 0001134  98.2772 123.2053 15.34362758    10

Track STARLINK-33748 in real time with AllMySat

Download on the App Store